PBO Station Position Time Series. Reference Frame : NAM14
Format Version,1.1.0
4-character ID,P157
Station name,GordaTwo__CN2006
Begin Date, 2006-05-11
End Date, 2019-10-07
Release Date, 2019-10-08
Reference position, 40.2475473256 North Latitude, -124.3080746097 East Longitude, 695.81489 meters elevation,
Date, North (mm), East (mm), Vertical (mm), North Std. Deviation (mm), East Std. Deviation (mm),              Vertical Std. Deviation (mm), Quality,
2006-05-11,0.00, 0.00, 0.00, 2.02, 1.55, 7.18, repro,
2006-05-12,1.54, -0.53, -8.03, 2.06, 1.59, 7.24, repro,
2006-05-13,1.31, -0.92, -6.32, 2.02, 1.55, 7.15, repro,
2006-05-14,2.06, 0.17, -5.86, 2.04, 1.55, 7.20, repro,
2006-05-15,1.24, -0.22, -9.37, 2.04, 1.54, 7.20, repro,
2006-05-16,2.02, -0.10, -6.02, 2.04, 1.59, 7.36, repro,
2006-05-17,2.22, 0.11, -0.67, 2.04, 1.59, 7.35, repro,
2006-05-18,1.60, -0.33, 2.13, 2.03, 1.55, 7.16, repro,
2006-05-19,1.73, -1.33, -3.83, 2.10, 1.57, 7.25, repro,
2006-05-20,-0.03, -2.29, -3.55, 2.10, 1.56, 7.26, repro,
2006-05-21,2.93, -0.01, 3.41, 2.09, 1.56, 7.27, repro,
2006-05-22,1.20, -1.44, 3.83, 2.08, 1.58, 7.30, repro,
2006-05-23,6.28, 2.50, -14.86, 2.09, 1.58, 7.29, repro,
2006-05-24,3.65, 0.51, -5.64, 2.09, 1.59, 7.30, repro,
2006-05-25,1.42, -0.30, -11.40, 2.20, 1.65, 7.68, repro,
2006-05-26,1.59, -0.27, -3.95, 2.15, 1.61, 7.53, repro,
2006-05-27,2.61, -0.21, -9.19, 2.08, 1.57, 7.28, repro,
2006-05-28,2.90, -0.56, -8.41, 2.09, 1.58, 7.30, repro,
2006-05-29,1.56, 0.31, -8.46, 2.09, 1.58, 7.29, repro,
2006-05-30,2.58, -0.56, -5.92, 2.15, 1.62, 7.47, repro,
2006-05-31,1.39, 0.20, -8.18, 2.15, 1.60, 7.47, repro,
2006-06-01,1.23, -0.07, -5.60, 2.17, 1.64, 7.58, repro,
2006-06-02,2.82, -1.53, -2.04, 2.25, 1.68, 7.86, repro,
2006-06-03,1.21, 0.89, -4.57, 2.20, 1.65, 7.73, repro,
2006-06-04,3.67, 0.72, -7.39, 2.14, 1.61, 7.49, repro,
2006-06-05,1.16, 0.04, -1.32, 2.14, 1.60, 7.48, repro,
2006-06-06,-0.62, -1.40, 6.57, 2.15, 1.59, 7.44, repro,
2006-06-07,0.52, -0.24, -2.20, 2.15, 1.59, 7.44, repro,
2006-06-08,2.41, -0.48, -9.97, 2.10, 1.59, 7.34, repro,
2006-06-09,1.45, 0.41, 0.27, 2.13, 1.62, 7.50, repro,
2006-06-10,1.14, -0.08, -4.05, 2.07, 1.58, 7.24, repro,
2006-06-11,1.17, -0.98, -0.84, 2.11, 1.60, 7.43, repro,
2006-06-12,1.00, 0.82, 0.29, 2.16, 1.67, 7.62, repro,
2006-06-13,1.76, 0.22, -5.26, 2.15, 1.61, 7.49, repro,
2006-06-14,2.86, 0.02, -4.01, 2.10, 1.59, 7.34, repro,
2006-06-15,0.47, 0.58, -1.70, 2.09, 1.58, 7.30, repro,
2006-06-16,-0.09, -0.35, -1.32, 2.07, 1.57, 7.24, repro,
2006-06-17,2.06, 1.08, 0.17, 2.08, 1.56, 7.24, repro,
2006-06-18,-1.04, -0.02, 10.47, 2.11, 1.62, 7.53, repro,
2006-06-19,2.25, -0.29, -3.33, 2.12, 1.62, 7.56, repro,
2006-06-20,1.23, 0.10, -2.66, 2.11, 1.62, 7.53, repro,
2006-06-21,6.72, -1.16, -7.46, 2.10, 1.62, 7.51, repro,
2006-06-22,-0.14, -0.47, -9.85, 2.09, 1.61, 7.43, repro,
2006-06-23,1.58, -0.24, -5.43, 2.10, 1.62, 7.52, repro,
2006-06-24,1.02, -0.71, -1.60, 2.12, 1.62, 7.54, repro,
2006-06-25,0.66, 0.67, -8.46, 2.14, 1.69, 7.70, repro,
2006-06-26,1.76, -0.43, -1.18, 2.14, 1.69, 7.73, repro,
2006-06-27,-0.78, -0.71, -2.32, 2.16, 1.69, 7.70, repro,
2006-06-28,0.96, 0.17, 1.63, 2.11, 1.62, 7.49, repro,
2006-06-29,2.19, -0.26, 2.11, 2.04, 1.59, 7.36, repro,
2006-06-30,1.76, -0.59, -3.74, 2.08, 1.58, 7.39, repro,
2006-07-01,-1.56, -1.03, -0.53, 2.08, 1.59, 7.41, repro,
2006-07-02,2.03, -1.49, -1.83, 2.11, 1.69, 7.74, repro,
2006-07-03,2.03, -0.93, -5.49, 2.07, 1.58, 7.40, repro,
2006-07-04,0.80, -0.47, -6.19, 2.07, 1.59, 7.40, repro,
2006-07-05,0.46, -1.08, -5.70, 2.07, 1.58, 7.34, repro,
2006-07-06,-1.81, -2.52, -12.15, 2.08, 1.58, 7.39, repro,
2006-07-07,0.43, -0.94, -5.68, 2.09, 1.60, 7.47, repro,
2006-07-08,0.82, -0.05, -2.14, 2.09, 1.59, 7.49, repro,
2006-07-09,0.66, -1.03, -0.33, 2.08, 1.59, 7.44, repro,
2006-07-10,-0.04, -0.63, -1.34, 2.07, 1.58, 7.37, repro,
2006-07-11,1.73, -1.37, -0.68, 2.08, 1.58, 7.42, repro,
2006-07-12,1.57, -2.15, -4.56, 2.21, 1.72, 7.86, repro,
2006-07-13,1.73, 0.73, -2.82, 2.08, 1.59, 7.47, repro,
2006-07-14,1.83, -0.16, 0.93, 2.08, 1.59, 7.46, repro,
2006-07-15,0.87, -1.55, -4.31, 2.08, 1.59, 7.45, repro,
2006-07-16,1.54, -0.77, -1.75, 2.07, 1.58, 7.40, repro,
2006-07-17,1.22, -0.02, 1.66, 2.11, 1.63, 7.71, repro,
2006-07-18,1.11, -0.46, -2.75, 2.03, 1.55, 7.20, repro,
2006-07-19,1.09, -1.59, -0.94, 2.02, 1.54, 7.19, repro,
2006-07-20,1.00, -1.40, -3.62, 2.02, 1.55, 7.21, repro,
2006-07-21,1.10, -0.01, 1.76, 2.03, 1.54, 7.20, repro,
2006-07-22,2.30, -0.10, 1.76, 2.01, 1.55, 7.17, repro,
2006-07-23,0.39, -0.72, 0.26, 2.03, 1.56, 7.19, repro,
2006-07-24,3.87, -1.39, -2.98, 2.00, 1.54, 7.11, repro,
2006-07-25,1.28, -1.90, 4.03, 2.05, 1.59, 7.32, repro,
2006-07-26,1.70, -2.02, 2.52, 2.07, 1.56, 7.23, repro,
2006-07-27,2.11, -2.55, -4.41, 2.03, 1.55, 7.22, repro,
2006-07-28,1.52, -0.81, 0.47, 2.03, 1.55, 7.16, repro,
2006-07-29,1.59, -1.96, -9.38, 2.01, 1.55, 7.18, repro,
2006-07-30,-1.65, -1.96, 1.55, 2.05, 1.59, 7.35, repro,
2006-07-31,-0.69, -2.31, 2.44, 2.01, 1.55, 7.21, repro,
2006-08-01,0.84, -0.27, -4.64, 2.03, 1.55, 7.25, repro,
2006-08-02,3.24, -1.04, 6.67, 2.06, 1.60, 7.50, repro,
2006-08-03,1.83, -0.49, 2.12, 2.09, 1.65, 7.62, repro,
2006-08-04,1.59, -1.75, -0.10, 2.09, 1.62, 7.51, repro,
2006-08-05,1.79, -1.62, -0.39, 2.10, 1.64, 7.63, repro,
2006-08-06,3.14, -0.64, -2.49, 2.07, 1.61, 7.55, repro,
2006-08-07,2.10, -1.45, -2.12, 2.07, 1.61, 7.57, repro,
2006-08-08,2.16, -0.09, -7.24, 2.03, 1.56, 7.22, repro,
2006-08-09,4.77, 1.18, 0.51, 2.06, 1.60, 7.36, repro,
2006-08-10,0.52, -0.54, 3.45, 2.02, 1.55, 7.21, repro,
2006-08-11,0.17, -0.59, 1.49, 2.03, 1.56, 7.24, repro,
2006-08-12,1.74, -0.46, -2.86, 2.02, 1.56, 7.22, repro,
2006-08-13,2.11, -1.25, 1.53, 2.06, 1.61, 7.37, repro,
2006-08-14,1.49, -0.61, 2.92, 2.05, 1.60, 7.31, repro,
2006-08-15,2.28, 0.22, 6.33, 2.13, 1.63, 7.50, repro,
2006-08-16,-0.90, -1.21, 2.76, 2.02, 1.55, 7.20, repro,
2006-08-17,2.55, -0.38, 3.52, 2.15, 1.63, 7.56, repro,
2006-08-18,1.08, -1.09, 0.01, 2.10, 1.65, 7.53, repro,
2006-08-19,0.85, -0.32, -2.17, 2.02, 1.55, 7.19, repro,
2006-08-20,1.98, -1.27, 3.61, 2.02, 1.57, 7.19, repro,
2006-08-21,1.95, -0.83, -2.23, 2.02, 1.58, 7.28, repro,
2006-08-22,2.46, -0.43, 0.59, 2.03, 1.58, 7.27, repro,
2006-08-23,-0.06, -1.39, 4.91, 2.02, 1.58, 7.27, repro,
2006-08-24,2.69, -0.62, 4.81, 2.02, 1.59, 7.30, repro,
2006-08-25,2.37, -0.47, 4.30, 2.05, 1.63, 7.57, repro,
2006-08-26,0.77, -1.16, 4.82, 2.07, 1.65, 7.66, repro,
2006-08-27,2.33, -1.03, 0.82, 2.11, 1.69, 7.84, repro,
2006-08-28,2.13, -0.67, -0.97, 2.09, 1.66, 7.67, repro,
2006-08-29,0.87, -1.38, 1.30, 2.09, 1.68, 7.73, repro,
2006-08-30,2.53, -0.09, 2.91, 2.09, 1.68, 7.72, repro,
2006-08-31,1.24, 0.29, 2.05, 2.11, 1.68, 7.79, repro,
2006-09-01,1.74, -1.87, -1.67, 2.17, 1.71, 8.02, repro,
2006-09-02,1.34, -2.05, 0.09, 2.10, 1.68, 7.76, repro,
2006-09-03,1.64, -2.02, -4.69, 2.08, 1.67, 7.66, repro,
2006-09-04,2.94, -1.14, -2.06, 2.17, 1.70, 7.90, repro,
2006-09-05,2.56, -1.01, -4.25, 2.16, 1.70, 7.89, repro,
2006-09-06,2.37, -1.39, -7.22, 2.09, 1.67, 7.70, repro,
2006-09-07,0.94, -1.44, 3.19, 2.15, 1.72, 8.07, repro,
2006-09-08,1.07, -1.38, 4.32, 2.15, 1.73, 8.06, repro,
2006-09-09,-0.14, -3.59, -8.02, 2.17, 1.74, 7.83, repro,
2006-09-10,0.36, -1.57, 0.15, 2.06, 1.64, 7.47, repro,
2006-09-11,1.93, -1.20, -1.05, 2.05, 1.62, 7.40, repro,
2006-09-12,1.85, -2.08, -0.67, 2.07, 1.64, 7.55, repro,
2006-09-13,1.07, -1.81, 3.39, 2.08, 1.64, 7.51, repro,
2006-09-14,1.62, -3.80, -4.82, 2.16, 1.73, 7.78, repro,
2006-09-15,2.97, -1.49, -1.68, 2.09, 1.62, 7.43, repro,
2006-09-16,3.33, -1.14, -3.60, 2.03, 1.58, 7.27, repro,
2006-09-17,2.87, -0.37, 13.30, 2.06, 1.60, 7.39, repro,
2006-09-18,-1.31, -0.69, 4.65, 2.04, 1.62, 7.46, repro,
2006-09-19,2.68, -2.16, -3.93, 2.02, 1.59, 7.30, repro,
2006-09-20,4.10, -1.28, -9.09, 2.02, 1.60, 7.36, repro,
2006-09-21,8.01, -2.78, -8.78, 2.07, 1.63, 7.50, repro,
2006-09-22,6.11, -1.00, 18.14, 2.18, 1.69, 7.75, repro,
2006-09-23,2.43, -1.05, -2.59, 2.14, 1.65, 7.59, repro,
2006-09-24,2.17, -1.50, 1.95, 2.19, 1.69, 7.79, repro,
2006-09-25,2.75, -1.07, 0.51, 2.15, 1.66, 7.66, repro,
2006-09-26,1.68, -1.13, -1.23, 2.13, 1.67, 7.54, repro,
2006-09-27,2.20, -1.40, -2.16, 2.20, 1.72, 7.81, repro,
2006-09-28,1.94, -1.65, 3.46, 2.12, 1.64, 7.56, repro,
2006-09-29,1.79, -1.34, 4.95, 2.15, 1.69, 7.65, repro,
2006-09-30,2.72, -1.15, 5.85, 2.08, 1.66, 7.63, repro,
2006-10-01,3.05, -2.05, 3.95, 2.09, 1.65, 7.67, repro,
2006-10-02,2.29, -2.20, 1.90, 2.11, 1.68, 7.52, repro,
2006-10-03,1.85, -0.93, 1.00, 2.22, 1.74, 7.89, repro,
2006-10-04,2.48, -1.96, 1.48, 2.10, 1.63, 7.48, repro,
2006-10-05,2.84, -1.77, 5.03, 2.05, 1.61, 7.40, repro,
2006-10-06,3.00, -0.93, -3.64, 2.06, 1.61, 7.44, repro,
2006-10-07,7.07, -0.16, -11.17, 2.19, 1.78, 8.02, repro,
2006-10-08,0.62, -1.21, -6.51, 2.09, 1.64, 7.51, repro,
2006-10-09,1.45, -2.12, -1.52, 2.10, 1.66, 7.55, repro,
2006-10-10,1.85, -2.03, -1.88, 2.10, 1.65, 7.64, repro,
2006-10-11,1.84, -0.39, 5.27, 2.09, 1.65, 7.65, repro,
2006-10-12,1.76, -1.27, 6.22, 2.15, 1.67, 7.68, repro,
2006-10-13,0.89, -1.52, 3.46, 2.06, 1.60, 7.33, repro,
2006-10-14,1.98, -1.79, 2.87, 2.10, 1.66, 7.71, repro,
2006-10-15,0.33, -1.53, 10.24, 2.07, 1.65, 7.60, repro,
2006-10-16,2.10, 0.12, 9.38, 2.11, 1.64, 7.66, repro,
2006-10-17,1.81, -1.22, -0.65, 2.25, 1.68, 8.15, repro,
2006-10-18,0.38, -0.72, 2.98, 2.07, 1.65, 7.60, repro,
2006-10-19,5.67, 0.43, -0.39, 2.24, 1.68, 8.05, repro,
2006-10-20,3.33, 0.22, -7.13, 2.35, 1.86, 8.93, repro,
2006-10-21,0.24, -2.19, 4.51, 2.35, 1.80, 8.41, repro,
2006-10-22,1.87, -1.58, -4.65, 2.16, 1.67, 7.96, repro,
2006-10-23,1.53, -1.92, -2.48, 2.14, 1.69, 7.81, repro,
2006-10-24,1.92, -1.07, -3.87, 2.26, 1.72, 8.12, repro,
2006-10-25,3.41, -0.85, 5.20, 2.29, 1.75, 8.34, repro,
2006-10-26,2.04, -0.32, -3.18, 2.11, 1.71, 7.85, repro,
2006-10-27,2.13, -0.64, -2.18, 2.10, 1.70, 7.72, repro,
2006-10-28,0.81, -1.35, -0.58, 2.33, 1.86, 8.62, repro,
2006-10-29,0.59, -1.32, 2.35, 2.05, 1.64, 7.53, repro,
2006-10-30,-1.41, -0.86, 5.56, 2.04, 1.64, 7.55, repro,
2006-10-31,1.01, -1.81, -0.49, 2.16, 1.68, 8.00, repro,
2006-11-01,3.20, -2.36, 0.97, 2.14, 1.74, 7.91, repro,
2006-11-02,4.11, -2.97, 5.35, 2.04, 1.61, 7.48, repro,
2006-11-03,4.11, 0.80, 0.72, 2.07, 1.65, 7.60, repro,
2006-11-04,3.25, -1.50, -5.49, 2.16, 1.74, 7.92, repro,
2006-11-05,1.87, -1.42, -4.46, 2.15, 1.71, 7.96, repro,
2006-11-06,2.45, -1.18, -7.95, 2.04, 1.62, 7.50, repro,
2006-11-07,3.63, -0.78, -7.02, 2.18, 1.73, 7.87, repro,
2006-11-08,2.00, -0.76, 6.83, 2.17, 1.69, 7.86, repro,
2006-11-09,2.08, -0.54, -3.51, 2.17, 1.74, 7.93, repro,
2006-11-10,1.86, -1.40, -2.01, 2.09, 1.62, 7.55, repro,
2006-11-11,1.85, -0.83, -8.76, 2.13, 1.66, 7.67, repro,
2006-11-12,1.30, -0.53, -8.67, 2.18, 1.71, 7.75, repro,
2006-11-13,3.03, -3.15, 7.26, 2.14, 1.68, 7.60, repro,
2006-11-14,1.95, -1.15, 2.46, 2.01, 1.59, 7.27, repro,
2006-11-15,2.43, -1.24, -6.14, 1.99, 1.59, 7.27, repro,
2006-11-16,0.44, -1.59, 1.56, 2.01, 1.59, 7.29, repro,
2006-11-17,2.84, -1.33, -1.62, 2.00, 1.58, 7.22, repro,
2006-11-18,3.79, -1.12, -10.19, 2.00, 1.58, 7.19, repro,
2006-11-19,3.39, -1.55, -7.52, 1.99, 1.58, 7.18, repro,
2006-11-20,2.21, -0.64, -3.91, 2.07, 1.60, 7.49, repro,
2006-11-21,2.80, -1.82, -0.72, 2.01, 1.59, 7.29, repro,
2006-11-22,3.11, -0.61, -1.45, 2.01, 1.59, 7.27, repro,
2006-11-23,1.57, -0.43, -6.03, 2.03, 1.62, 7.45, repro,
2006-11-24,1.12, -2.17, -11.35, 2.09, 1.67, 7.69, repro,
2006-11-25,1.23, -1.76, -12.35, 2.07, 1.65, 7.48, repro,
2006-11-26,1.50, -0.47, -9.40, 2.14, 1.68, 7.76, repro,
2006-11-27,0.64, -1.44, -7.66, 2.05, 1.61, 7.34, repro,
2006-11-28,-0.98, -0.98, -5.40, 2.00, 1.60, 7.27, repro,
2006-11-29,3.14, -0.41, -6.54, 2.01, 1.59, 7.27, repro,
2006-11-30,1.80, -0.56, -8.62, 1.98, 1.59, 7.23, repro,
2006-12-01,5.68, 0.57, -17.60, 1.98, 1.58, 7.20, repro,
2006-12-02,2.40, -0.33, -10.71, 2.04, 1.61, 7.35, repro,
2006-12-03,2.23, -0.97, -5.64, 2.01, 1.60, 7.29, repro,
2006-12-04,1.54, -0.72, -12.47, 2.05, 1.62, 7.38, repro,
2006-12-05,1.87, -0.68, -10.29, 2.01, 1.66, 7.39, repro,
2006-12-06,2.81, -1.93, -7.09, 2.07, 1.72, 7.58, repro,
2006-12-07,2.76, -1.73, -6.92, 2.02, 1.65, 7.37, repro,
2006-12-08,2.17, -1.73, -2.36, 2.17, 1.75, 7.92, repro,
2006-12-09,3.78, -1.68, -5.96, 2.15, 1.82, 7.99, repro,
2006-12-10,4.01, -1.23, -4.24, 2.08, 1.70, 7.57, repro,
2006-12-11,3.96, -1.78, -8.99, 1.99, 1.61, 7.25, repro,
2006-12-12,3.05, -1.50, -11.48, 2.06, 1.68, 7.48, repro,
2006-12-13,2.50, -2.22, -11.94, 2.02, 1.67, 7.42, repro,
2006-12-14,3.32, -0.38, -7.75, 2.01, 1.63, 7.39, repro,
2006-12-15,1.52, -2.75, -3.32, 2.11, 1.76, 7.87, repro,
2006-12-16,2.07, -2.43, -6.62, 2.06, 1.69, 7.44, repro,
2006-12-17,1.03, -1.41, -13.96, 2.08, 1.78, 7.81, repro,
2006-12-18,2.99, -0.65, -10.42, 2.18, 1.87, 8.22, repro,
2006-12-19,2.69, -1.69, -2.47, 2.13, 1.86, 8.10, repro,
2006-12-20,3.97, -1.57, -6.93, 2.19, 1.89, 8.09, repro,
2006-12-21,3.96, -1.62, -15.95, 2.01, 1.72, 7.50, repro,
2006-12-22,2.22, -1.36, -4.63, 2.14, 1.88, 8.29, repro,
2006-12-23,3.02, -1.88, -9.15, 2.06, 1.72, 7.71, repro,
2006-12-24,4.02, -2.51, -9.18, 2.00, 1.63, 7.34, repro,
2006-12-25,4.02, 0.27, -4.43, 2.06, 1.75, 7.65, repro,
2006-12-26,3.48, -3.07, -4.43, 2.04, 1.70, 7.52, repro,
2006-12-27,0.21, -4.13, -6.60, 2.11, 1.77, 7.93, repro,
2006-12-28,1.65, -1.18, -3.89, 2.30, 2.04, 8.85, repro,
2006-12-29,2.61, -3.10, -16.34, 2.22, 1.89, 8.37, repro,
2006-12-30,2.82, -2.13, -8.89, 2.06, 1.72, 7.65, repro,
2006-12-31,2.96, 0.37, -6.06, 2.35, 2.11, 9.26, repro,
2007-01-01,3.12, -0.41, -7.88, 2.28, 2.02, 8.72, repro,
2007-01-02,1.95, -1.25, -1.36, 2.16, 1.90, 8.25, repro,
2007-01-03,4.36, -2.28, -4.36, 2.09, 1.83, 7.95, repro,
2007-01-04,2.43, -2.10, -3.33, 2.02, 1.70, 7.57, repro,
2007-01-05,3.79, -2.26, -14.52, 2.02, 1.68, 7.47, repro,
2007-01-06,2.62, -1.03, -10.72, 2.05, 1.75, 7.70, repro,
2007-01-07,3.28, 0.00, -11.56, 2.02, 1.63, 7.35, repro,
2007-01-08,0.95, -0.24, -19.31, 2.06, 1.68, 7.56, repro,
2007-01-09,1.52, -0.53, -10.91, 2.03, 1.64, 7.37, repro,
2007-01-10,3.06, -1.77, -14.10, 2.11, 1.74, 7.64, repro,
2007-01-11,3.23, -1.36, -10.26, 2.09, 1.63, 7.42, repro,
2007-01-12,3.86, -0.59, -15.04, 2.00, 1.59, 7.20, repro,
2007-01-13,4.05, -0.37, -12.49, 1.96, 1.57, 7.08, repro,
2007-01-14,4.77, -0.63, -18.05, 1.96, 1.57, 7.08, repro,
2007-01-15,3.50, -1.27, -15.23, 1.96, 1.56, 7.12, repro,
2007-01-16,3.70, -1.73, -11.83, 2.00, 1.58, 7.15, repro,
2007-01-17,3.25, -1.24, -9.64, 1.99, 1.60, 7.20, repro,
2007-01-18,7.28, 0.49, -23.10, 2.04, 1.65, 7.39, repro,
2007-01-19,3.79, -0.33, -15.51, 2.06, 1.65, 7.63, repro,
2007-01-20,4.45, -1.06, -5.37, 2.05, 1.62, 7.52, repro,
2007-01-21,6.09, 0.29, -11.29, 1.96, 1.56, 7.06, repro,
2007-01-22,4.37, 0.64, -9.72, 1.96, 1.56, 7.02, repro,
2007-01-23,3.10, -0.30, -14.29, 1.95, 1.56, 6.98, repro,
2007-01-24,2.42, -1.01, -13.93, 1.97, 1.56, 7.05, repro,
2007-01-25,1.86, -2.04, -12.39, 2.01, 1.61, 7.21, repro,
2007-01-26,2.34, -1.33, -6.35, 1.95, 1.56, 6.99, repro,
2007-01-27,1.95, -1.06, -11.23, 1.94, 1.55, 6.96, repro,
2007-01-28,2.45, -0.65, -10.27, 1.96, 1.55, 6.96, repro,
2007-01-29,2.46, 0.21, -11.37, 1.95, 1.56, 6.93, repro,
2007-01-30,1.97, -0.94, -6.90, 1.95, 1.56, 6.95, repro,
2007-01-31,1.04, -0.73, -4.93, 1.95, 1.55, 6.98, repro,
2007-02-01,1.33, 0.22, -6.23, 1.98, 1.59, 7.13, repro,
2007-02-02,1.90, 0.05, -10.36, 1.98, 1.57, 7.08, repro,
2007-02-03,2.20, -0.31, -8.97, 1.99, 1.58, 7.10, repro,
2007-02-04,1.76, -0.22, -8.27, 1.96, 1.56, 6.96, repro,
2007-02-05,1.47, 0.27, -8.93, 1.95, 1.56, 7.01, repro,
2007-02-06,1.61, -2.98, -10.04, 1.99, 1.57, 7.10, repro,
2007-02-07,4.45, -0.69, -14.72, 1.98, 1.62, 7.19, repro,
2007-02-08,3.36, -0.42, -10.46, 2.03, 1.62, 7.29, repro,
2007-02-09,4.99, 0.28, -12.00, 2.00, 1.61, 7.18, repro,
2007-02-10,3.34, 1.14, -10.59, 2.02, 1.61, 7.19, repro,
2007-02-11,3.35, -0.57, -2.05, 2.02, 1.61, 7.18, repro,
2007-02-12,3.01, -1.11, -12.41, 1.96, 1.56, 6.97, repro,
2007-02-13,3.61, -0.35, -14.43, 1.94, 1.56, 6.96, repro,
2007-02-14,1.40, 0.52, -13.45, 1.96, 1.57, 6.99, repro,
2007-02-15,2.43, 0.83, -8.62, 1.96, 1.56, 6.99, repro,
2007-02-16,3.18, 0.83, -10.04, 1.97, 1.57, 7.04, repro,
2007-02-17,2.23, 1.13, -7.77, 2.02, 1.62, 7.22, repro,
2007-02-18,1.31, 0.30, -9.76, 1.94, 1.56, 7.06, repro,
2007-02-19,1.88, -0.34, -6.14, 1.95, 1.57, 7.04, repro,
2007-02-20,1.80, -0.25, -5.08, 1.96, 1.57, 7.02, repro,
2007-02-21,2.37, 1.03, -2.67, 1.97, 1.57, 7.05, repro,
2007-02-22,-2.36, -0.72, -14.15, 1.98, 1.57, 7.07, repro,
2007-02-23,1.86, -0.02, -3.39, 2.23, 1.73, 7.90, repro,
2007-02-24,3.46, -0.52, -9.24, 1.94, 1.57, 7.04, repro,
2007-02-25,3.01, 0.07, -2.73, 1.96, 1.57, 7.06, repro,
2007-02-26,1.79, 0.47, -4.27, 1.96, 1.57, 7.04, repro,
2007-02-27,0.27, 2.39, -3.04, 1.97, 1.56, 7.01, repro,
2007-02-28,0.69, 1.07, -3.78, 1.96, 1.56, 7.01, repro,
2007-03-01,2.17, 0.66, -7.42, 2.02, 1.62, 7.27, repro,
2007-03-02,1.47, 0.89, -8.18, 2.00, 1.62, 7.26, repro,
2007-03-03,2.43, 1.48, -13.71, 1.98, 1.60, 7.15, repro,
2007-03-04,2.83, 0.14, -9.72, 1.99, 1.60, 7.13, repro,
2007-03-05,2.19, 0.17, -1.46, 2.00, 1.60, 7.14, repro,
2007-03-06,3.00, 0.05, -5.59, 1.99, 1.60, 7.17, repro,
2007-03-07,1.11, -1.10, -1.55, 2.04, 1.65, 7.37, repro,
2007-03-08,2.29, 0.65, -9.64, 1.98, 1.60, 7.16, repro,
2007-03-09,2.39, 0.39, -7.59, 2.03, 1.65, 7.25, repro,
2007-03-10,3.93, -0.12, -7.27, 2.06, 1.64, 7.41, repro,
2007-03-11,2.12, 0.42, -8.88, 2.01, 1.61, 7.24, repro,
2007-03-12,0.98, 0.19, -9.86, 2.00, 1.60, 7.19, repro,
2007-03-13,-0.94, -0.84, -7.11, 1.95, 1.55, 7.03, repro,
2007-03-14,3.04, 1.74, 1.19, 1.96, 1.55, 6.96, repro,
2007-03-15,2.09, 1.41, -3.19, 2.03, 1.63, 7.29, repro,
2007-03-16,1.81, 0.08, -5.25, 2.01, 1.59, 7.18, repro,
2007-03-17,-0.11, 0.44, -1.79, 1.98, 1.55, 7.03, repro,
2007-03-18,1.19, 0.57, -2.23, 1.99, 1.59, 7.14, repro,
2007-03-19,2.35, 1.05, -3.36, 2.06, 1.62, 7.20, repro,
2007-03-20,1.26, -0.21, -6.81, 2.04, 1.58, 7.10, repro,
2007-03-21,0.99, -0.13, -3.75, 2.08, 1.62, 7.34, repro,
2007-03-22,4.56, 1.99, -10.01, 1.99, 1.56, 7.09, repro,
2007-03-23,0.69, -1.27, -10.82, 2.00, 1.59, 7.24, repro,
2007-03-24,-0.55, -1.07, -5.94, 1.99, 1.58, 7.15, repro,
2007-03-25,2.34, 1.16, -1.00, 1.97, 1.54, 6.98, repro,
2007-03-26,2.25, -0.13, -3.82, 1.98, 1.55, 6.99, repro,
2007-03-27,-2.03, 0.03, -4.80, 2.02, 1.57, 7.11, repro,
2007-03-28,1.75, 1.49, -5.58, 2.10, 1.60, 7.33, repro,
2007-03-29,1.37, 0.86, -4.87, 2.00, 1.59, 7.26, repro,
2007-03-30,1.15, 0.11, -5.85, 1.98, 1.55, 7.00, repro,
2007-03-31,1.02, 0.59, -2.25, 1.98, 1.55, 6.97, repro,
2007-04-01,-0.24, 0.20, -2.68, 1.98, 1.55, 6.96, repro,
2007-04-02,0.45, -0.50, -3.27, 1.97, 1.55, 6.95, repro,
2007-04-03,1.49, -0.46, -7.51, 2.01, 1.59, 7.14, repro,
2007-04-04,1.43, 0.47, -11.28, 2.07, 1.65, 7.35, repro,
2007-04-05,0.96, 0.32, -7.15, 2.09, 1.69, 7.44, repro,
2007-04-06,1.20, 0.34, -6.64, 2.07, 1.67, 7.41, repro,
2007-04-07,1.69, -0.32, -7.13, 2.01, 1.59, 7.12, repro,
2007-04-08,1.11, -0.54, -4.80, 1.96, 1.54, 6.91, repro,
2007-04-09,2.33, -0.01, -8.28, 1.99, 1.54, 6.97, repro,
2007-04-10,1.82, -0.37, -6.22, 2.05, 1.58, 7.23, repro,
2007-04-11,1.14, 0.65, -0.75, 2.03, 1.60, 7.17, repro,
2007-04-12,2.36, 0.85, -7.50, 1.98, 1.54, 6.95, repro,
2007-04-13,0.27, 0.63, -3.31, 1.98, 1.54, 6.96, repro,
2007-04-14,2.93, -0.21, -0.06, 2.01, 1.55, 6.99, repro,
2007-04-15,1.09, -0.47, -3.97, 2.00, 1.55, 7.05, repro,
2007-04-16,4.85, 0.81, -12.25, 2.00, 1.55, 7.08, repro,
2007-04-17,1.19, -0.39, -10.26, 1.98, 1.55, 6.99, repro,
2007-04-18,0.02, 0.17, -6.60, 1.98, 1.55, 6.97, repro,
2007-04-19,2.56, 0.02, -10.51, 1.98, 1.54, 6.94, repro,
2007-04-20,1.75, -1.21, -7.71, 1.98, 1.54, 6.96, repro,
2007-04-21,2.93, -0.74, -4.99, 2.00, 1.54, 7.06, repro,
2007-04-22,1.46, -1.79, -4.43, 2.00, 1.56, 7.09, repro,
2007-04-23,0.32, -0.40, -8.04, 2.02, 1.57, 7.13, repro,
2007-04-24,2.04, -0.35, -10.04, 2.01, 1.56, 7.09, repro,
2007-04-25,0.53, 0.49, -6.56, 2.03, 1.57, 7.14, repro,
2007-04-26,2.66, 1.08, -7.30, 1.98, 1.53, 6.99, repro,
2007-04-27,2.87, 0.23, -1.55, 2.03, 1.60, 7.28, repro,
2007-04-28,0.33, -0.25, -4.21, 2.00, 1.55, 7.09, repro,
2007-04-29,-0.46, -0.98, -11.58, 1.98, 1.54, 7.02, repro,
2007-04-30,1.15, -1.06, -2.67, 1.98, 1.55, 7.05, repro,
2007-05-01,0.46, -0.62, -9.20, 2.03, 1.57, 7.10, repro,
2007-05-02,1.92, -1.02, -8.10, 2.11, 1.58, 7.30, repro,
2007-05-03,2.72, 0.48, -5.29, 2.13, 1.61, 7.54, repro,
2007-05-04,0.48, 0.35, -13.31, 1.99, 1.54, 7.05, repro,
2007-05-05,3.46, -1.00, -6.69, 2.01, 1.59, 7.16, repro,
2007-05-06,1.67, -2.85, -13.89, 2.00, 1.54, 7.01, repro,
2007-05-07,3.40, 0.95, -7.04, 1.99, 1.52, 6.96, repro,
2007-05-08,1.97, -0.96, -3.15, 2.00, 1.53, 7.02, repro,
2007-05-09,2.43, -0.64, -7.65, 2.01, 1.54, 7.11, repro,
2007-05-10,1.02, -0.23, -8.59, 2.13, 1.66, 7.68, repro,
2007-05-11,2.61, -0.07, -13.10, 2.09, 1.61, 7.44, repro,
2007-05-12,-0.59, -1.02, -9.07, 1.99, 1.53, 6.99, repro,
2007-05-13,1.71, 1.55, -7.60, 2.05, 1.57, 7.18, repro,
2007-05-14,1.65, -0.30, -6.53, 2.05, 1.57, 7.20, repro,
2007-05-15,1.73, -0.79, -9.04, 2.02, 1.54, 7.08, repro,
2007-05-16,1.31, -1.20, -8.80, 2.01, 1.55, 7.11, repro,
2007-05-17,-0.59, -0.95, -5.83, 2.04, 1.58, 7.24, repro,
2007-05-18,2.73, -1.28, -6.06, 2.11, 1.64, 7.48, repro,
2007-05-19,1.35, -0.41, -9.67, 2.04, 1.58, 7.20, repro,
2007-05-20,1.51, 1.03, -5.56, 2.09, 1.61, 7.38, repro,
2007-05-21,3.10, -1.59, -7.63, 2.05, 1.58, 7.22, repro,
2007-05-22,3.75, -0.42, -10.25, 2.05, 1.58, 7.21, repro,
2007-05-23,1.24, -0.93, -8.80, 2.13, 1.67, 7.55, repro,
2007-05-24,3.13, -1.75, -5.28, 2.16, 1.69, 7.67, repro,
2007-05-25,0.70, -0.00, -1.70, 2.02, 1.54, 7.07, repro,
2007-05-26,0.46, -0.65, -8.94, 2.06, 1.59, 7.23, repro,
2007-05-27,0.21, -2.59, 0.44, 2.05, 1.56, 7.18, repro,
2007-05-28,2.09, 0.54, -7.27, 2.07, 1.62, 7.25, repro,
2007-05-29,2.08, -1.32, -7.02, 2.04, 1.56, 7.13, repro,
2007-05-30,2.10, -1.29, -7.32, 2.04, 1.54, 7.08, repro,
2007-05-31,1.73, -0.80, -3.68, 2.08, 1.59, 7.29, repro,
2007-06-01,1.38, -0.53, -7.39, 2.01, 1.55, 7.08, repro,
2007-06-02,-0.35, -0.88, -5.17, 2.02, 1.54, 7.07, repro,
2007-06-03,1.60, -0.12, -8.36, 2.01, 1.53, 6.99, repro,
2007-06-04,2.62, 0.45, -2.89, 2.01, 1.53, 7.01, repro,
2007-06-05,1.67, -0.75, -2.88, 2.06, 1.55, 7.18, repro,
2007-06-06,0.68, 0.87, -2.89, 2.00, 1.54, 7.01, repro,
2007-06-07,-0.73, 0.37, 1.70, 2.01, 1.55, 7.06, repro,
2007-06-08,-0.25, -1.23, -2.29, 2.02, 1.54, 7.03, repro,
2007-06-09,1.48, -2.00, -13.22, 2.02, 1.57, 7.12, repro,
2007-06-10,2.03, -1.00, -11.14, 2.02, 1.54, 7.07, repro,
2007-06-11,-0.52, 0.29, -4.44, 2.04, 1.63, 7.29, repro,
2007-06-12,0.68, -0.95, 5.51, 2.06, 1.65, 7.38, repro,
2007-06-13,4.79, -1.27, -21.84, 2.07, 1.59, 7.19, repro,
2007-06-14,5.06, -2.08, -38.63, 2.00, 1.52, 6.94, repro,
2007-06-15,3.48, -1.74, -20.19, 1.99, 1.52, 6.99, repro,
2007-06-16,0.20, -1.79, -3.67, 2.00, 1.54, 7.02, repro,
2007-06-17,1.78, -0.43, -8.18, 2.00, 1.54, 7.03, repro,
2007-06-18,3.79, -0.03, -1.75, 2.01, 1.54, 7.05, repro,
2007-06-19,1.05, -0.49, -7.24, 2.01, 1.53, 7.00, repro,
2007-06-20,1.72, -0.66, -10.90, 2.00, 1.53, 6.95, repro,
2007-06-21,1.99, -1.13, -9.34, 1.99, 1.53, 6.97, repro,
2007-06-22,-0.92, -1.75, -6.08, 2.01, 1.54, 7.03, repro,
2007-06-23,-1.19, -0.93, -1.18, 2.01, 1.55, 7.07, repro,
2007-06-24,2.78, -1.43, -11.49, 2.05, 1.59, 7.30, repro,
2007-06-25,-0.05, -0.45, -3.23, 2.02, 1.54, 7.08, repro,
2007-06-26,2.07, -1.31, -13.94, 2.00, 1.53, 6.99, repro,
2007-06-27,1.93, -1.38, -4.52, 1.99, 1.54, 7.01, repro,
2007-06-28,1.23, -1.63, -5.15, 2.01, 1.55, 7.09, repro,
2007-06-29,2.78, -1.29, -8.40, 2.02, 1.55, 7.10, repro,
2007-06-30,2.86, -0.72, -5.09, 2.02, 1.54, 7.06, repro,
2007-07-01,2.24, -0.75, -6.21, 2.00, 1.53, 7.01, repro,
2007-07-02,2.16, -0.78, -6.27, 2.00, 1.54, 7.00, repro,
2007-07-03,1.74, -0.06, -8.04, 2.00, 1.54, 7.05, repro,
2007-07-04,0.77, 0.45, -7.86, 2.01, 1.55, 7.08, repro,
2007-07-05,1.05, -0.20, -6.11, 2.03, 1.54, 7.07, repro,